Location: Batang Balui
(2.7000°N, 113.7833°E)
Time: 03:52:37
(UTC+00:00)

XW-2B - Visible Passes

Search period start: 29 March 2023 00:00
Search period end: 08 April 2023 00:00
Orbit: 480 x 498 km, 97.5° (Epoch: 28 March)

Date Brightness Start Highest point End Pass type
(mag) Time Alt. Az. Time Alt. Az. Time Alt. Az.
29 Mar ? 21:50:08 10° NE 21:53:06 24° ESE 21:56:05 10° SSE visible
30 Mar ? 11:15:31 10° WSW 11:16:23 11° W 11:17:14 10° W visible
30 Mar ? 21:29:23 10° E 21:30:08 11° E 21:30:54 10° ESE visible
31 Mar ? 10:50:24 10° SSW 10:53:23 25° W 10:56:22 10° NW visible
02 Apr ? 21:51:13 10° NE 21:54:13 25° E 21:57:16 10° SSE visible
03 Apr ? 11:16:51 10° WSW 11:17:24 10° W 11:17:57 10° W visible
03 Apr ? 21:30:08 10° E 21:31:06 11° E 21:32:04 10° ESE visible
04 Apr ? 10:51:17 10° SSW 10:54:15 24° W 10:57:11 10° NW visible
06 Apr ? 21:51:39 10° NE 21:54:41 25° E 21:57:44 10° SSE visible
07 Apr ? 11:17:18 10° WSW 11:17:45 10° W 11:18:12 10° W visible
07 Apr ? 21:30:24 10° E 21:31:23 11° E 21:32:23 10° ESE visible
